This is the latest recevied weather packets stored in our database for station/object MKSRDG. If no packets are shown the sender has not sent any weather packets the latest 10 day(s).
| Time | Temp. | Humidity | Pressure | Rain* | Wind** | Luminosity | Snow |
|---|---|---|---|---|---|---|---|
| 1777703996 | 10.56° C | 85% | 1015.9 hPa | 0 mm | - | 0 W/m² | - |
| 1777703096 | 11.11° C | 86% | 1015.6 hPa | 0 mm | - | 0 W/m² | - |
| 1777702196 | 11.11° C | 85% | 1015.2 hPa | 0 mm | - | 0 W/m² | - |
| 1777701296 | 11.67° C | 85% | 1015.5 hPa | 0 mm | - | 0 W/m² | - |
| 1777700396 | 11.67° C | 84% | 1015.3 hPa | 0 mm | - | 0 W/m² | - |
| 1777699496 | 11.67° C | 84% | 1015.5 hPa | 0 mm | - | 0 W/m² | - |
| 1777698596 | 11.67° C | 84% | 1015.2 hPa | 0 mm | - | 0 W/m² | - |
| 1777697696 | 11.67° C | 84% | 1015.1 hPa | 0 mm | - | 0 W/m² | - |
| 1777696796 | 11.67° C | 84% | 1015.2 hPa | 0 mm | - | 0 W/m² | - |
| 1777695896 | 12.22° C | 84% | 1015 hPa | 0 mm | - | 0 W/m² | - |
| 1777694996 | 12.22° C | 84% | 1014.8 hPa | 0 mm | - | 0 W/m² | - |
| 1777694096 | 12.78° C | 83% | 1014.6 hPa | 0 mm | - | 0 W/m² | - |
| 1777693196 | 12.78° C | 82% | 1014.4 hPa | 0 mm | - | 0 W/m² | - |
| 1777692296 | 13.33° C | 80% | 1014.2 hPa | 0 mm | - | 0 W/m² | - |
| 1777691396 | 14.44° C | 79% | 1014.1 hPa | 0 mm | - | 7 W/m² | - |
| 1777690496 | 14.44° C | 76% | 1013.9 hPa | 0 mm | - | 18 W/m² | - |
| 1777689596 | 15.56° C | 77% | 1013.8 hPa | 0 mm | - | 32 W/m² | - |
| 1777688696 | 15.56° C | 76% | 1013.8 hPa | 0 mm | - | 47 W/m² | - |
| 1777687796 | 16.67° C | 74% | 1013.6 hPa | 0 mm | - | 90 W/m² | - |
| 1777686896 | 16.67° C | 74% | 1013.8 hPa | 0 mm | - | 127 W/m² | - |
| 1777685996 | 16.67° C | 73% | 1013.7 hPa | 0 mm | - | 102 W/m² | - |
| 1777685096 | 17.78° C | 71% | 1013.6 hPa | 0 mm | - | 209 W/m² | - |
| 1777684196 | 17.78° C | 72% | 1013.7 hPa | 0 mm | - | 355 W/m² | - |
| 1777683296 | 17.78° C | 68% | 1013.8 hPa | 0 mm | - | 376 W/m² | - |
| 1777682396 | 17.78° C | 70% | 1013.9 hPa | 0 mm | - | 420 W/m² | - |
* Rain latest hour (hover to see other rain measurements)
** Current wind speed in m/s (hover to see current wind gust speed)